N2RFA-13 Weather Reports


time (UTC)temp
C
wind
direction
speed
KPH
gust
KPH
rain 1hr
cm
rain 24hr
cm
rain mn
cm
humidity
%
barometer
mb
20260505224543 25 144 1.6 8.0 0.00 0.00 0.00 37 1008.7
20260505223042 25 164 4.8 9.7 0.00 0.00 0.00 36 1008.6
20260505221542 25 194 1.6 6.4 0.00 0.00 0.00 36 1008.7
20260505220042 25 194 3.2 11.3 0.00 0.00 0.00 35 1008.5
20260505214542 26 127 3.2 14.5 0.00 0.00 0.00 34 1008.3
20260505213051 26 158 1.6 14.5 0.00 0.00 0.00 35 1008.3
20260505211542 26 167 1.6 9.7 0.00 0.00 0.00 34 1008.1
20260505210039 26 135 3.2 9.7 0.00 0.00 0.00 35 1008.0
20260505204537 26 125 1.6 12.9 0.00 0.00 0.00 36 1007.9
20260505203039 26 133 3.2 14.5 0.00 0.00 0.00 38 1008.0
20260505201537 26 163 3.2 12.9 0.00 0.00 0.00 38 1008.2
20260505200134 26 194 6.4 12.9 0.00 0.00 0.00 36 1008.3
20260505194534 27 179 4.8 11.3 0.00 0.00 0.00 38 1008.3
20260505193032 27 194 3.2 9.7 0.00 0.00 0.00 37 1008.3
20260505191533 27 169 3.2 12.9 0.00 0.00 0.00 38 1008.4
20260505190034 27 149 4.8 12.9 0.00 0.00 0.00 37 1008.7
20260505184528 27 138 4.8 12.9 0.00 0.00 0.00 33 1008.8
20260505183033 27 173 4.8 11.3 0.00 0.00 0.00 36 1009.2
20260505181524 26 122 4.8 9.7 0.00 0.00 0.00 39 1009.3
20260505180042 27 177 4.8 12.9 0.00 0.00 0.00 38 1009.6
20260505174522 27 156 3.2 14.5 0.00 0.00 0.00 41 1009.5
20260505173021 27 176 4.8 14.5 0.00 0.00 0.00 41 1009.7
20260505171518 27 160 3.2 12.9 0.00 0.00 0.00 41 1009.9
20260505170016 27 113 3.2 9.7 0.00 0.00 0.00 42 1010.0
20260505164515 27 153 1.6 11.3 0.00 0.00 0.00 44 1010.2
20260505163014 27 148 3.2 9.7 0.00 0.00 0.00 43 1010.3
20260505161511 27 122 1.6 9.7 0.00 0.00 0.00 43 1010.4
20260505153005 25 145 3.2 8.0 0.00 0.00 0.00 48 1011.2
20260505151559 25 160 3.2 8.0 0.00 0.00 0.00 48 1011.1
20260505124525 18 143 1.6 6.4 0.00 0.00 0.00 67 1011.5
20260505123029 17 145 0.0 4.8 0.00 0.00 0.00 73 1011.3
20260505121515 15 134 1.6 4.8 0.00 0.00 0.00 81 1011.4
20260505120019 13 133 0.0 0.0 0.00 0.00 0.00 93 1011.5
20260505114507 12 133 0.0 1.6 0.00 0.00 0.00 93 1011.7
20260505113004 12 133 0.0 0.0 0.00 0.00 0.00 92 1011.7
20260505111509 11 133 0.0 1.6 0.00 0.00 0.00 92 1011.4
20260505101608 11 167 0.0 1.6 0.00 0.00 0.00 85 1011.7
20260505100104 10 179 0.0 0.0 0.00 0.00 0.00 84 1011.5
20260505094556 10 178 0.0 0.0 0.00 0.00 0.00 85 1011.3
20260505093102 9 178 0.0 1.6 0.00 0.00 0.00 87 1011.3
20260505091555 8 294 0.0 1.6 0.00 0.00 0.00 87 1011.0
20260505090052 8 294 0.0 3.2 0.00 0.00 0.00 86 1010.7
20260505084555 9 210 0.0 1.6 0.00 0.00 0.00 86 1010.7
20260505083049 9 211 0.0 0.0 0.00 0.00 0.00 85 1011.0
20260505081601 9 211 0.0 1.6 0.00 0.00 0.00 84 1010.9
20260505080058 9 211 0.0 1.6 0.00 0.00 0.00 84 1010.8
20260505074547 9 211 0.0 1.6 0.00 0.00 0.00 84 1010.8
20260505073048 9 210 0.0 1.6 0.00 0.00 0.00 83 1010.8
20260505071552 10 210 0.0 1.6 0.00 0.00 0.00 82 1010.9
20260505070045 10 210 0.0 1.6 0.00 0.00 0.00 82 1010.9
20260505064544 10 210 0.0 0.0 0.00 0.00 0.00 82 1011.0
20260505063049 9 210 0.0 1.6 0.00 0.00 0.00 82 1011.0
20260505061545 9 210 0.0 1.6 0.00 0.00 0.00 81 1011.1
20260505060042 9 209 0.0 1.6 0.00 0.00 0.00 81 1011.1
20260505054545 9 194 0.0 1.6 0.00 0.00 0.00 80 1011.3
20260505053044 9 194 0.0 0.0 0.00 0.00 0.00 80 1011.2
20260505051540 10 194 0.0 0.0 0.00 0.00 0.00 79 1011.3
20260505041528 10 194 0.0 0.0 0.00 0.00 0.00 76 1011.4
20260505040025 11 195 0.0 1.6 0.00 0.00 0.00 75 1011.5
20260505034525 11 194 0.0 0.0 0.00 0.00 0.00 73 1011.4
20260505033026 12 194 0.0 0.0 0.00 0.00 0.00 71 1011.6
20260505031531 12 195 0.0 0.0 0.00 0.00 0.00 69 1011.7
20260505030023 12 194 0.0 0.0 0.00 0.00 0.00 69 1011.7
20260505024523 12 194 0.0 0.0 0.00 0.00 0.00 70 1011.8
20260505023023 12 194 0.0 0.0 0.00 0.00 0.00 68 1011.8
20260505021521 13 194 0.0 0.0 0.00 0.00 0.00 64 1011.8
20260505020021 14 194 0.0 0.0 0.00 0.00 0.00 63 1011.9
20260505014521 15 194 0.0 0.0 0.00 0.00 0.00 59 1011.8
20260505013023 15 194 0.0 0.0 0.00 0.00 0.00 56 1011.7
20260505011526 16 194 0.0 0.0 0.00 0.00 0.00 53 1011.5
20260505010029 16 194 0.0 3.2 0.00 0.00 0.00 51 1011.3
20260505004519 17 194 0.0 1.6 0.00 0.00 0.00 51 1011.2
20260505003018 17 194 0.0 1.6 0.00 0.00 0.00 50 1011.0
20260505001518 17 194 0.0 4.8 0.00 0.00 0.00 49 1010.9
20260505000032 18 194 0.0 3.2 0.00 0.00 0.00 47 1010.6
20260504234516 18 194 0.0 4.8 0.00 0.00 0.00 46 1010.4
20260504233017 18 194 0.0 3.2 0.00 0.00 0.00 44 1010.1
20260504231516 19 194 1.6 9.7 0.00 0.00 0.00 43 1010.0
20260504230016 19 194 0.0 4.8 0.00 0.00 0.00 42 1009.9